Temp_Advection
nan nan nan nan nan nan nan nan nan nan nan nan nan nan nan nan nan nan nan nan nan nan nan nan nan nan nan nan nan nan nan nan nan nan nan nan nan nan nan nan nan nan nan nan nan nan nan nan nan nan nan nan nan nan nan nan nan nan nan nan nan nan nan nan nan nan nan nan nan
nan 0 -0 -0 -0 -1 -0 -0 -0 -0 -0 -0 -0 -0 0 0 -0 -0 0 0 0 0 0 0 0 0 -0 -0 -0 0 0 1 0 0 0 0 0 0 0 0 -0 -0 0 0 -0 -0 -0 0 0 0 0 0 1 1 0 0 0 0 0 0 0 0 0 0 0 0 0 0 nan
nan 0 0 0 0 0 0 0 0 0 0 0 0 0 0 1 0 0 0 0 0 0 0 0 0 0 0 -0 -0 0 0 0 -0 -0 -0 0 0 0 0 0 0 0 0 0 0 0 0 0 0 1 1 1 1 1 1 1 1 0 0 1 1 1 0 0 0 1 0 0 nan
nan 0 0 0 0 0 0 0 0 0 0 0 0 1 0 0 0 0 0 0 0 0 0 0 0 -0 0 0 0 0 0 0 0 0 0 0 0 0 0 0 0 0 0 0 0 0 0 0 0 1 1 1 1 1 1 1 1 1 1 1 1 1 1 1 1 1 1 1 nan
nan -0 -0 -0 -0 -0 -0 0 0 0 0 0 0 0 1 1 0 0 0 0 0 0 0 0 0 0 -0 0 0 0 -0 0 1 1 1 0 0 0 0 0 0 0 0 0 1 0 0 0 1 1 1 1 1 1 1 1 1 1 1 1 1 1 1 1 1 1 1 1 nan
nan 0 0 0 0 0 0 0 0 0 0 0 1 1 1 1 1 1 1 1 0 0 -0 -0 0 0 -0 -0 0 -0 -0 0 0 1 1 1 1 0 0 0 0 0 0 0 0 1 0 0 1 1 1 0 1 1 1 1 1 1 1 1 1 1 1 1 1 1 1 1 nan
nan 0 0 0 0 0 0 0 0 0 0 0 0 1 1 1 1 1 1 0 0 0 0 -0 -0 0 -0 -0 -0 -0 -0 -0 0 0 1 1 1 1 1 1 1 0 0 -0 0 0 0 0 1 1 1 1 1 1 1 1 1 1 1 1 1 1 1 1 1 1 1 1 nan
nan -0 -0 0 0 0 0 0 1 1 1 0 0 0 0 0 0 0 0 0 0 1 0 0 0 -0 -0 -0 -0 -0 -0 -0 0 1 1 0 1 1 1 1 0 0 0 -0 0 0 0 0 0 0 1 1 1 1 1 1 1 0 0 0 0 0 0 0 0 0 1 1 nan
nan -0 -0 -0 -0 -0 0 0 0 1 1 1 0 0 0 0 0 0 0 0 0 0 0 0 0 -0 -0 -0 -0 -0 -0 0 0 0 0 0 0 0 0 0 0 0 -0 -0 -0 -0 0 0 0 0 0 0 0 0 0 0 0 0 -0 -0 -0 -0 -0 0 -0 -0 -0 -0 nan
nan 0 0 0 0 0 0 0 0 0 1 1 1 1 0 0 0 0 0 0 0 0 0 0 0 -0 -0 -0 -0 -0 -0 0 -0 -0 -0 0 -0 -0 0 0 1 0 0 -0 -0 -0 -0 0 0 -0 -0 0 -0 -0 -0 -0 -0 -0 -0 -0 -0 -0 -0 -0 -0 -0 -0 -0 nan
nan -0 -0 -0 0 0 0 1 1 1 1 1 1 0 0 0 0 0 0 0 0 0 1 1 0 -0 -0 -0 -0 -0 -0 -0 -0 -0 0 0 0 -0 -0 0 0 1 1 -0 -0 -0 -0 -0 -0 -0 0 -0 -0 -0 -0 -0 -0 -0 -0 -0 -0 -0 0 0 0 0 0 -0 nan
nan -0 -0 -0 -0 0 0 1 1 1 1 1 0 0 0 0 0 0 0 0 0 0 0 0 0 -0 -0 -0 -0 -0 -0 -0 0 0 0 0 0 0 -0 -0 0 1 1 1 0 -0 -0 -0 -0 -0 -0 -0 0 0 0 0 0 -0 -0 -0 -0 -0 -0 -0 -0 0 0 0 nan
nan -0 -0 -0 -0 0 0 0 1 1 1 1 1 0 0 0 0 0 0 0 0 0 0 0 0 0 -0 -0 -0 -0 -0 -0 0 0 0 0 0 0 0 -0 -0 -0 0 1 1 0 0 -0 -0 -0 -0 -0 -0 0 0 0 0 0 0 0 -0 -0 -0 -0 -0 -0 -0 -0 nan
nan -0 -0 -0 -0 0 0 0 0 0 1 1 1 1 0 0 0 0 0 0 0 0 -0 -0 0 0 0 -0 -0 -0 -0 0 0 0 0 0 0 0 0 0 -0 -0 0 1 1 0 0 0 0 0 -0 -0 -0 0 0 0 0 0 0 0 -0 -0 -0 -0 -1 -1 -0 -0 nan
nan -0 -0 -0 -0 -0 -0 0 0 0 0 1 1 1 0 0 0 0 0 0 -0 -0 -0 -0 0 0 0 -0 -0 -0 -0 -0 0 0 0 0 0 0 0 0 0 -0 -0 0 0 0 0 0 0 0 0 0 0 0 0 0 0 0 0 0 0 0 -0 -0 -0 -1 -1 -1 nan
nan -0 -0 -0 -0 -0 -0 0 0 0 0 1 1 1 0 0 0 0 0 0 -0 -0 -0 0 0 -0 -0 -0 -0 -0 -0 -0 0 0 0 -0 -0 0 0 0 0 0 0 -0 -0 -0 -0 -0 0 0 0 0 0 0 0 0 0 0 0 0 0 0 0 0 0 -0 -0 -1 nan
nan -0 -0 -0 -0 0 0 0 0 0 0 0 1 1 1 0 0 0 0 0 -0 -0 -0 0 0 0 -0 -0 -0 -0 -0 -0 -0 0 0 0 -0 -0 -0 0 0 0 0 -0 -0 -0 -0 -0 -0 -0 -0 -0 -0 -0 -0 0 0 0 0 1 1 1 1 1 1 0 0 -0 nan
nan -0 -0 -0 0 0 0 0 0 0 0 0 1 1 1 1 1 0 0 0 0 -0 -0 -0 0 0 0 -0 -0 -0 -0 -0 -0 0 0 0 0 -0 -0 -0 -0 0 0 0 -0 -0 -0 -0 -1 -0 -1 -1 -1 -1 -1 -1 -1 -0 -0 0 0 0 1 1 1 1 1 0 nan
nan -0 -0 -0 0 0 0 0 0 0 0 0 0 1 1 1 1 1 0 0 0 0 -0 -0 -0 -0 0 -0 -0 -0 -0 -0 -0 -0 0 0 0 0 0 -0 -0 0 0 0 0 -0 -0 -0 -1 -1 -1 -1 -1 -1 -1 -1 -1 -1 -1 -1 -1 -0 -0 0 0 1 1 1 nan
nan -0 -0 -0 -0 -0 0 0 0 0 0 0 0 0 1 1 1 1 1 0 0 0 0 -0 -0 -0 -0 -0 -0 -0 -0 -0 -0 -0 -0 0 0 0 0 0 0 0 0 1 1 0 0 -0 -0 -1 -1 -1 -1 -1 -1 -1 -1 -1 -1 -1 -1 -1 -1 -1 -1 -0 0 1 nan
nan -0 -0 -0 -0 0 -0 0 -0 0 0 0 0 0 0 1 1 1 1 1 0 0 0 0 0 -0 -0 -0 -0 -0 -0 -0 -0 -0 -0 -0 0 0 0 0 0 0 0 0 1 1 0 0 -0 -0 -0 -0 -0 -0 -1 -1 -1 -1 -1 -1 -1 -1 -1 -1 -1 -1 -1 -0 nan
nan -0 -0 -0 -0 -0 -0 -0 -0 -0 0 0 0 0 0 1 1 1 1 1 1 0 0 0 0 0 0 0 -0 -0 -0 -0 -0 -0 -0 -0 -0 0 0 0 0 0 -0 -0 0 1 1 1 0 0 -0 -0 -0 -0 -0 -0 -0 -0 -1 -1 -1 -1 -1 -1 -1 -1 -1 -1 nan
nan -0 -0 -0 -0 -0 -0 -0 -0 -0 -0 -0 0 0 0 1 1 1 1 1 1 1 0 0 0 0 0 0 -0 -0 -0 -0 -0 -0 0 0 -0 -0 0 0 0 0 0 -0 -0 0 0 1 1 0 0 0 -0 -0 -0 -0 -0 -0 -0 -0 -0 -1 -1 -1 -1 -1 -1 -1 nan
nan -0 -0 -0 -0 -0 -0 -0 -0 -0 -0 -0 0 0 0 0 0 1 1 1 1 1 1 0 0 0 0 0 0 -0 -0 -0 -0 -0 -0 -0 0 -0 -0 0 0 0 0 -0 0 -0 -0 0 1 0 0 0 0 -0 -0 -0 -0 -0 -0 -0 -0 -1 -1 -0 -0 -0 -1 -1 nan
nan -0 -0 -0 -0 -0 -0 -0 -0 -0 -0 -0 -0 -0 0 0 0 1 1 1 1 1 1 0 0 0 0 0 0 -0 -0 -0 -0 -1 -1 -0 -0 -0 -0 -0 -0 0 0 -0 0 0 -0 -1 1 1 0 -0 -0 -0 -0 -1 -1 -0 -0 -0 -1 -1 -1 -1 -1 -0 -0 -0 nan
nan -0 -0 -0 -0 -0 -0 -0 -0 -0 -0 -0 -0 -0 -0 -0 0 0 1 1 1 1 1 1 0 0 0 0 0 0 -0 -0 -0 -0 -1 -1 -1 -1 -0 -0 -0 -0 0 -0 0 0 -0 -1 0 1 1 -0 -0 -0 -0 -1 -1 -1 -1 -0 -0 -1 -0 -0 -0 -0 -0 -0 nan
nan -0 -0 -0 -0 -0 -0 -0 -0 -0 -0 -0 -0 -0 -0 -0 0 0 0 0 1 1 1 0 0 0 0 0 0 -0 -0 -0 -0 -0 -0 -0 -1 -1 -0 -1 -0 -0 -0 -0 0 1 0 -1 -0 1 1 0 -0 -0 -0 -1 -1 -1 -1 -1 -0 -0 -0 -0 -0 -0 -0 -0 nan
nan 0 -0 -0 -0 -0 -0 -0 -0 -0 -0 -0 -0 -0 -0 -0 -0 -0 0 0 0 0 0 0 0 0 0 0 0 -0 -0 -0 -0 -0 -0 -0 -0 -0 -0 -0 -0 -0 -0 -0 0 1 0 -0 -1 0 1 1 0 -0 -0 -0 -0 -0 -0 -0 -0 -0 -0 -0 -0 0 0 0 nan
nan 0 0 0 -0 -0 -0 -0 -0 -0 0 0 -0 -0 -0 -0 -0 -0 -0 0 0 0 0 0 0 0 0 0 0 0 0 -0 0 -0 -0 -0 0 0 0 0 -0 -0 -0 0 0 1 0 -0 -1 -1 1 1 0 0 -0 0 0 -0 -0 -0 -0 -0 -0 0 0 0 0 0 nan
nan 0 0 0 0 0 0 0 0 0 0 -0 -0 0 -0 -0 -0 -0 -0 -0 0 0 0 0 0 1 1 1 0 0 0 0 0 0 0 -0 -0 0 0 0 0 0 0 0 0 1 0 -0 -1 -1 0 1 1 0 0 0 0 0 0 -0 -0 0 0 0 0 0 0 0 nan
nan 0 0 0 0 0 0 0 0 0 0 0 -0 -0 -0 -0 -0 -0 -0 -0 -0 0 0 0 0 0 1 1 0 0 0 0 0 0 0 0 -0 0 0 0 0 0 0 0 0 1 1 0 -0 -1 -0 1 1 0 0 0 1 0 0 -0 -0 0 0 0 0 0 0 0 nan
nan 0 0 0 0 0 0 0 0 0 0 0 0 -0 -0 -0 0 0 0 -0 -0 -0 -0 0 0 0 0 0 0 0 0 0 0 0 0 0 0 -0 0 0 0 0 0 0 0 1 1 0 -0 -1 -1 1 1 1 0 1 0 0 -0 -0 -0 -0 0 0 0 0 0 -0 nan
nan 0 0 0 0 0 0 0 0 0 0 0 0 0 -0 -0 -0 0 0 0 -0 -0 -0 -0 -0 -0 -0 -0 -0 -0 -0 0 -0 -0 0 0 0 0 0 0 0 0 0 0 0 1 1 1 0 -0 -1 0 1 1 1 1 -0 -0 -0 0 -0 0 0 0 0 0 0 -0 nan
nan 0 0 0 0 0 0 0 0 0 0 0 0 0 0 -0 -0 -0 0 0 0 0 -0 -0 -0 -0 -0 -0 -0 -0 -0 -0 -0 -0 -0 -0 -0 -0 0 0 0 0 0 0 0 1 1 1 0 -0 -0 0 1 1 1 0 -0 -0 0 0 0 0 0 0 0 0 0 -0 nan
nan 0 0 0 0 0 0 0 0 0 0 0 0 0 0 0 0 0 0 0 0 0 -0 -0 -0 -0 0 0 0 -0 -0 -0 -0 -0 -0 -0 -0 -0 -0 0 0 0 0 0 0 1 1 1 1 -0 -0 0 1 1 1 -0 -0 0 0 0 0 0 -0 -0 -0 -0 -0 -0 nan
nan 0 0 0 0 0 0 0 0 0 0 0 0 0 0 0 0 0 0 -0 -0 0 0 0 0 0 0 0 0 0 0 0 -0 -0 -0 -0 -1 -1 -1 -0 0 0 0 0 0 0 1 1 1 0 -0 0 0 1 1 -0 0 0 0 0 0 0 -0 -0 -1 -1 -0 -0 nan
nan 0 0 0 0 0 0 0 0 0 0 0 0 0 0 0 0 0 0 -0 -0 0 0 0 0 0 1 1 1 1 1 0 0 0 0 0 -0 -1 -1 -1 -1 -0 0 0 0 0 0 1 1 0 -0 0 0 1 0 0 0 0 0 0 0 -0 -0 -0 -0 -0 -0 -0 nan
nan 0 0 0 0 0 0 0 0 0 0 0 0 0 0 0 -0 0 0 0 0 0 0 1 1 1 1 1 1 1 1 1 1 1 0 0 0 -0 -1 -1 -1 -0 -0 0 0 0 0 0 1 1 -0 0 1 0 0 0 0 0 0 0 0 -0 -0 -0 0 0 0 -0 nan
nan 0 0 0 0 0 0 0 0 0 0 0 0 0 0 0 0 0 0 0 1 0 1 1 1 0 0 0 1 1 1 1 1 1 1 1 1 0 0 -0 -1 -0 -0 -0 0 0 -0 0 0 1 0 0 1 0 0 0 0 0 0 0 0 0 -0 0 0 0 0 0 nan
nan 0 0 0 0 0 0 0 0 0 0 0 0 0 0 0 0 0 0 0 1 0 0 0 0 0 0 0 1 1 1 1 1 1 1 1 1 1 1 0 -0 -0 -0 0 0 -0 -0 0 0 0 -0 0 0 0 0 0 0 0 0 0 0 0 0 0 0 1 0 0 nan
nan nan nan nan nan nan nan nan nan nan nan nan nan nan nan nan nan nan nan nan nan nan nan nan nan nan nan nan nan nan nan nan nan nan nan nan nan nan nan nan nan nan nan nan nan nan nan nan nan nan nan nan nan nan nan nan nan nan nan nan nan nan nan nan nan nan nan nan nan
Wind_Speed
25 25 25 24 24 23 22 22 21 20 20 19 19 19 19 19 20 20 21 22 23 24 24 24 25 25 26 27 27 28 30 31 30 30 30 29 30 30 31 31 33 34 36 36 36 33 31 28 26 23 21 20 19 18 17 17 17 17 17 18 18 19 19 19 19 20 20 20 20
25 25 24 24 23 23 22 21 20 19 19 19 19 19 19 19 20 20 21 22 23 24 25 25 25 25 26 26 26 28 29 30 30 30 29 29 29 29 30 30 31 33 34 35 34 32 29 28 25 22 20 18 17 17 16 16 16 17 18 18 18 19 19 20 20 20 20 20 19
24 24 24 24 23 22 21 20 19 19 18 18 18 18 18 19 20 20 22 23 24 25 25 24 25 25 25 26 26 27 28 29 29 29 29 28 29 29 29 29 30 32 33 34 33 30 29 28 26 23 21 19 17 16 16 16 16 17 17 18 18 19 19 20 20 19 19 19 18
24 24 23 23 21 20 20 19 19 18 18 18 18 18 18 19 20 22 23 24 25 25 25 25 25 25 25 25 26 26 27 28 28 28 28 28 28 28 28 28 29 31 32 33 31 30 28 27 26 24 22 20 18 17 16 16 16 16 16 17 17 17 17 18 18 17 17 18 17
24 24 23 22 21 20 20 19 18 18 18 18 18 18 18 19 20 22 23 24 25 26 26 26 25 25 25 25 25 25 26 27 27 27 27 27 28 28 28 27 28 30 31 32 31 29 28 27 26 24 23 21 19 18 17 16 16 16 16 16 16 16 16 17 17 17 17 18 18
24 24 23 22 21 21 20 19 18 17 17 17 17 17 18 19 20 22 23 25 26 26 27 26 25 24 24 24 23 24 25 26 26 27 27 27 27 28 28 27 28 28 29 30 30 28 27 27 25 24 23 22 20 18 18 18 18 18 17 17 16 16 17 17 17 18 18 19 19
23 23 23 22 22 21 20 19 18 17 17 17 17 17 18 19 21 22 23 25 26 27 26 26 25 24 24 23 22 23 24 25 26 26 26 26 27 28 28 27 27 27 28 29 29 28 26 26 25 24 23 22 20 19 19 19 19 19 19 19 18 18 18 18 18 19 19 20 20
23 23 22 22 21 20 20 19 18 18 17 17 17 18 19 20 21 22 24 25 26 27 27 26 25 23 22 21 21 22 23 24 24 25 25 26 27 28 28 27 27 27 27 28 27 26 25 25 24 24 23 22 21 20 20 19 19 20 20 20 20 19 19 19 19 19 19 19 20
23 23 22 22 21 20 20 19 18 17 17 17 17 18 19 20 21 22 24 25 27 27 27 26 24 22 21 20 20 21 22 23 23 24 24 25 26 27 27 27 27 27 27 27 27 25 24 23 23 23 23 22 22 21 20 20 19 19 20 20 19 19 19 19 18 18 18 18 18
22 23 22 22 21 21 20 19 18 18 18 18 18 18 19 20 21 22 24 25 27 27 27 25 23 21 19 19 19 20 21 22 22 23 23 24 24 25 26 27 26 26 27 27 27 25 24 23 22 22 22 22 22 22 21 20 20 19 19 19 19 18 18 17 17 16 16 16 17
22 22 22 22 21 21 20 19 19 18 18 18 19 19 19 20 21 22 24 25 27 27 26 24 22 20 19 18 18 19 20 21 21 22 22 22 23 24 25 26 26 26 26 26 26 26 24 23 22 21 22 22 22 22 21 21 20 20 19 19 19 19 18 18 17 17 17 16 17
22 22 22 22 22 21 21 20 19 19 19 19 19 19 20 20 21 22 24 25 26 26 25 23 20 19 18 18 18 19 20 20 20 21 21 21 21 22 23 24 24 25 25 25 26 26 25 24 23 22 22 22 22 22 21 21 21 21 20 20 20 20 19 19 19 18 18 18 18
21 22 22 22 22 22 21 21 20 20 20 20 20 20 20 21 21 22 23 24 26 26 24 22 20 18 18 17 18 18 19 19 20 20 20 20 20 21 21 22 22 23 24 24 25 25 25 25 24 24 23 23 23 22 22 22 21 21 21 21 20 20 20 20 20 19 19 19 19
21 21 22 22 22 22 22 21 21 21 20 20 20 20 20 21 21 22 23 24 25 25 24 21 19 17 17 17 17 18 18 19 19 19 20 20 20 20 20 20 21 21 22 23 23 24 25 25 25 25 24 24 24 24 23 23 22 22 21 21 21 21 20 20 20 20 20 20 20
21 21 21 22 22 22 22 22 22 21 21 21 20 20 20 21 21 21 22 23 24 24 23 21 19 17 16 16 17 17 18 18 19 19 19 19 19 19 19 20 20 20 20 21 21 22 23 24 24 24 25 25 25 25 25 24 24 23 22 22 21 21 21 20 20 20 20 20 21
20 20 21 22 22 22 22 22 22 22 21 21 21 20 20 20 21 21 21 22 23 23 22 20 19 17 17 16 17 17 17 18 18 19 19 19 19 19 19 20 21 21 20 19 19 20 21 22 23 24 24 25 26 26 26 26 25 25 24 23 23 22 22 21 21 21 20 20 20
20 20 21 21 22 22 22 22 22 22 22 22 21 21 20 20 20 20 20 21 22 22 21 20 18 17 17 17 17 17 17 17 18 18 19 19 19 19 20 20 22 22 21 18 16 17 19 21 22 22 23 24 25 25 26 26 26 26 26 25 25 24 24 24 23 23 22 21 21
19 20 20 21 21 22 22 22 22 22 22 22 22 21 20 20 19 19 19 20 20 21 21 20 18 17 17 17 17 17 17 18 18 18 19 19 19 19 20 21 22 23 22 18 15 15 17 19 20 21 22 23 24 25 25 25 25 25 26 26 26 26 26 26 26 25 25 24 23
19 20 20 21 21 22 22 22 23 23 23 22 22 21 20 20 19 19 18 19 19 20 20 19 18 18 17 17 18 18 18 18 18 18 19 19 19 20 20 21 21 23 22 20 16 14 15 17 19 20 21 22 23 24 25 25 25 25 25 25 25 26 26 26 26 26 26 26 25
19 20 20 21 21 22 22 23 23 23 23 23 23 22 21 20 19 18 18 18 18 18 19 19 18 18 17 17 17 18 18 18 19 19 20 20 20 21 21 21 21 22 23 22 19 16 14 15 17 19 20 21 23 24 25 25 25 24 24 24 24 24 25 25 26 26 26 26 26
19 19 20 21 21 22 22 23 23 23 23 23 23 22 21 20 19 18 18 17 17 18 18 18 18 18 17 17 17 18 18 19 19 20 20 21 22 22 22 22 22 22 22 23 21 19 16 14 15 17 18 20 22 23 24 25 24 24 24 24 24 24 24 24 25 25 26 26 26
19 19 20 21 21 22 22 23 23 23 23 23 23 23 22 21 20 19 18 17 17 17 17 17 17 17 17 17 17 18 18 19 20 20 21 22 22 23 24 24 23 23 23 23 23 22 20 15 13 14 17 19 21 23 24 24 24 24 24 24 24 24 24 24 24 25 25 25 25
18 19 20 21 21 22 22 23 23 23 23 23 23 23 23 22 21 19 18 17 17 17 17 17 17 17 17 17 17 17 18 19 20 20 21 22 23 23 24 25 25 25 25 24 24 25 23 18 13 12 15 18 21 22 23 24 24 24 24 24 25 25 25 25 25 26 26 26 25
18 19 20 20 21 22 22 22 23 23 23 24 24 23 23 22 22 21 19 18 18 17 17 17 16 16 16 16 16 17 18 19 20 20 21 21 22 23 24 25 26 26 26 26 24 25 26 23 16 12 14 17 20 22 23 23 23 23 24 24 25 26 26 27 27 27 27 27 26
18 19 20 20 21 22 22 23 23 23 24 24 24 24 23 23 22 22 21 20 19 18 18 17 17 16 16 16 16 17 18 19 20 20 21 21 21 22 23 24 24 25 26 26 24 25 26 25 18 13 13 17 19 22 23 23 23 22 23 24 25 26 27 28 28 29 29 28 27
18 19 19 20 21 21 22 23 23 23 24 24 24 24 24 24 23 23 22 21 20 20 19 18 18 17 17 17 17 17 18 18 19 20 21 21 21 22 22 23 23 24 24 25 24 25 26 26 21 16 14 17 19 22 23 23 22 21 22 23 24 26 27 28 30 30 31 30 29
17 18 19 20 20 21 22 22 23 23 23 24 24 24 24 24 24 24 23 22 22 21 20 20 19 19 18 18 18 18 18 19 20 20 21 21 21 22 22 22 22 23 23 24 24 24 26 27 24 19 16 17 19 22 23 22 21 21 21 22 24 25 27 28 30 31 31 31 30
17 18 19 19 20 21 22 22 23 23 23 24 24 24 24 24 24 24 24 23 23 22 22 21 21 20 20 20 20 19 20 20 20 21 21 22 22 22 22 22 22 22 22 22 23 24 25 27 26 23 19 18 18 21 23 23 21 20 20 22 24 25 26 28 30 31 32 32 31
17 18 18 19 20 21 21 22 23 23 23 23 24 24 24 24 24 24 24 24 24 23 23 22 22 21 21 21 21 21 21 21 22 22 22 23 23 23 23 22 22 22 21 21 22 23 25 26 27 25 22 19 17 20 22 23 21 19 19 21 23 25 26 28 30 31 32 32 31
16 17 18 19 20 20 21 22 22 23 23 23 23 24 24 24 25 25 25 25 25 24 24 23 23 22 22 22 22 22 22 22 23 23 23 24 24 24 23 23 22 22 21 21 21 23 24 26 27 26 22 18 17 19 22 24 22 19 18 21 23 25 27 28 30 31 31 31 30
16 17 17 18 19 20 20 21 22 22 23 23 23 23 24 25 25 25 25 25 25 25 24 23 23 22 22 22 22 23 23 23 23 24 24 25 25 25 24 24 23 22 21 21 22 23 24 25 27 27 23 19 17 18 23 26 25 21 19 20 24 26 27 29 30 31 31 31 29
16 16 17 18 18 19 20 20 21 22 22 23 23 23 24 24 25 25 25 25 25 25 24 24 23 23 23 23 23 23 23 24 24 24 24 25 25 25 25 24 24 23 22 22 22 23 24 25 26 26 25 21 19 19 23 27 26 23 20 20 23 26 28 29 30 31 31 30 27
15 16 17 17 18 18 19 20 21 21 22 22 23 23 24 24 24 25 25 26 26 25 25 24 24 23 23 23 23 23 24 24 24 24 24 25 25 25 25 25 24 23 23 23 23 24 25 25 25 26 26 24 20 20 24 28 27 23 19 19 22 25 28 28 30 31 31 29 26
15 15 16 17 17 18 19 19 20 21 21 22 22 23 23 24 25 25 26 26 26 26 25 24 24 23 23 23 23 23 23 23 24 24 24 25 25 25 25 25 24 24 23 23 24 24 25 25 25 25 25 24 20 21 25 29 26 20 17 19 21 25 28 28 30 31 31 29 25
14 15 16 16 17 17 18 19 20 20 21 22 22 22 23 24 24 25 25 26 26 26 25 24 24 23 23 22 22 22 22 22 23 23 23 24 24 25 25 25 24 23 23 23 23 24 24 24 25 25 25 23 20 22 27 29 23 18 17 18 22 25 28 28 30 31 31 29 25
14 15 15 16 16 17 18 18 19 20 21 21 22 22 23 24 24 24 25 26 26 26 25 24 23 23 22 22 21 21 21 21 21 21 22 22 23 24 24 24 24 23 22 22 22 23 23 24 24 26 25 21 20 23 28 28 21 17 18 20 24 26 27 28 29 30 30 29 26
14 15 15 16 16 17 17 18 19 20 20 21 21 22 23 23 24 24 25 26 26 26 25 24 23 23 23 22 21 20 20 20 20 20 21 21 21 22 23 24 23 22 21 20 21 22 22 23 24 25 24 20 21 25 28 25 19 17 19 21 24 26 27 27 27 28 29 29 25
14 15 15 16 16 17 17 18 19 20 20 21 21 21 22 23 23 24 25 26 26 26 26 25 24 23 23 22 21 20 20 20 20 20 20 20 20 21 22 23 23 22 20 20 20 21 22 22 24 24 23 20 21 25 26 22 18 17 20 22 23 25 26 26 26 26 27 28 25
14 15 15 16 16 17 17 18 18 19 20 20 21 21 22 22 23 24 24 25 25 26 26 25 24 24 23 22 22 21 20 20 20 20 20 20 20 20 21 22 22 21 20 19 20 21 21 22 22 22 21 19 21 23 23 19 17 18 20 22 22 22 23 25 26 26 27 27 24
14 15 16 16 17 17 17 17 18 18 19 20 20 21 21 22 22 23 23 24 25 25 25 25 24 23 23 22 21 21 20 20 20 20 20 20 20 20 20 21 21 21 20 20 20 20 21 21 21 20 19 18 20 20 18 17 16 18 20 21 20 20 21 24 26 26 26 26 24
14 15 16 16 17 17 17 17 18 18 18 19 20 21 21 21 22 22 23 23 24 24 25 25 24 23 22 21 20 20 20 21 21 21 21 20 20 20 21 21 21 21 21 20 20 20 20 20 19 17 15 16 17 17 16 14 15 18 20 20 18 18 21 24 26 27 27 25 24
Wind_Direction
352 352 352 352 352 352 353 353 352 352 351 351 350 349 348 347 344 343 343 342 340 339 339 338 336 334 335 337 339 339 340 341 342 343 343 342 342 343 344 346 347 347 347 348 349 348 345 343 340 337 333 330 327 324 319 314 311 309 308 308 306 307 308 308 307 307 306 306 306
352 352 352 352 352 352 353 353 352 351 350 349 348 348 346 344 342 341 340 340 340 341 340 338 334 333 334 335 337 339 341 343 345 346 344 342 342 343 346 348 350 350 350 351 353 351 349 349 349 349 347 343 338 332 327 324 320 318 316 316 315 315 314 312 312 312 312 312 313
352 352 352 352 352 353 353 353 352 351 349 348 347 347 346 344 341 340 340 341 342 342 340 336 335 334 333 335 337 340 343 346 347 347 344 342 342 344 347 349 352 353 353 354 356 355 354 355 357 358 357 354 349 342 336 333 331 328 325 325 324 322 319 317 317 319 320 320 322
353 353 352 352 352 352 352 352 351 350 349 347 347 347 345 344 343 342 342 342 341 341 341 340 337 334 332 333 338 343 346 348 347 345 344 343 344 346 348 352 355 356 356 357 359 359 358 359 360 0 1 1 358 354 349 345 343 340 338 337 336 332 329 328 329 330 330 331 332
353 353 353 352 352 351 351 351 350 349 347 346 346 346 345 343 342 341 340 340 341 342 343 343 339 334 332 334 339 344 347 349 347 347 346 346 347 348 351 354 358 359 359 360 1 2 2 2 2 2 2 3 2 360 359 360 359 358 356 354 352 349 346 344 344 345 344 343 343
352 353 353 352 352 352 351 350 349 348 347 345 345 344 343 342 342 341 341 340 341 342 343 342 338 334 333 335 339 343 347 349 349 349 348 348 349 351 353 356 359 0 1 1 3 4 4 4 5 5 5 6 6 8 9 11 13 14 13 10 7 4 2 360 359 358 357 356 355
353 353 353 352 352 351 351 349 348 347 346 344 344 343 343 342 343 342 342 342 341 342 342 341 338 335 333 334 339 344 347 349 349 349 349 350 351 352 354 356 359 1 2 3 4 5 4 4 5 6 7 7 10 12 15 17 18 18 18 16 14 12 11 11 11 10 9 8 6
353 354 353 353 352 352 350 349 347 346 344 342 342 341 342 342 343 343 342 342 342 343 343 341 338 334 333 334 339 344 348 349 349 349 349 350 352 354 355 357 1 3 4 3 5 5 4 3 4 5 6 7 9 11 13 14 15 14 13 12 11 11 12 14 15 15 15 14 11
353 354 354 354 353 352 350 348 347 344 342 340 339 339 340 341 342 343 343 343 343 344 344 341 337 334 332 334 339 345 348 350 350 350 349 349 351 352 354 356 359 2 3 4 6 5 4 2 1 1 1 1 2 3 4 6 7 7 6 4 4 5 7 8 10 11 11 11 9
354 354 354 354 353 351 349 347 345 343 340 339 338 338 339 340 341 343 343 343 344 344 344 340 337 334 333 336 340 345 349 350 350 350 349 349 349 350 352 354 358 0 2 3 5 6 4 2 360 358 356 355 356 356 357 358 359 359 358 358 358 358 359 360 360 1 2 2 3
355 355 355 354 353 351 349 347 344 342 340 338 337 337 338 339 341 342 343 344 345 344 343 341 337 335 335 336 340 345 348 350 351 350 349 347 347 347 349 351 355 359 1 2 5 6 6 4 2 358 355 353 352 351 352 352 353 353 353 352 352 352 352 352 352 352 352 352 353
355 356 355 355 353 352 350 347 344 342 340 338 337 337 338 339 341 342 343 344 345 344 343 341 339 336 336 337 340 344 347 349 350 350 349 346 345 344 345 348 351 356 359 2 5 6 7 6 5 2 359 356 353 351 350 349 349 349 348 348 348 348 348 347 347 347 346 345 345
356 357 356 355 354 352 350 348 346 343 341 339 338 337 338 339 340 341 343 344 345 345 344 342 339 337 336 337 339 343 346 348 349 350 349 347 344 342 342 343 346 351 356 360 4 6 7 7 7 6 4 0 358 355 353 350 349 347 346 345 344 344 343 342 341 340 340 339 340
357 357 356 355 354 353 351 349 347 345 343 340 339 338 338 338 340 341 343 344 345 345 345 343 339 336 335 336 338 341 344 346 347 348 349 347 345 342 339 338 340 344 350 356 2 5 6 7 8 7 6 4 2 360 357 355 352 350 347 345 343 341 339 337 335 334 333 333 334
357 357 356 355 355 354 352 351 349 347 345 342 341 339 339 339 340 341 343 344 345 346 345 342 338 334 333 333 336 338 342 344 345 347 348 348 347 343 340 336 335 336 341 350 359 3 5 6 7 7 5 4 3 1 359 358 356 354 352 349 346 342 339 336 333 332 331 330 330
356 355 355 355 355 354 353 352 350 349 347 345 343 341 340 340 341 342 343 344 345 345 345 342 337 333 331 330 332 335 338 341 343 345 347 348 348 347 344 340 336 334 335 341 352 0 4 4 5 5 4 3 1 360 358 357 356 355 354 352 350 347 343 340 338 336 335 333 332
355 355 354 354 354 354 353 353 352 350 349 347 346 344 343 342 341 342 342 344 344 345 344 342 337 333 329 328 329 331 334 337 340 342 345 347 349 350 348 345 342 339 336 335 345 356 2 3 4 4 3 1 359 357 356 355 354 353 352 351 350 348 346 344 343 342 342 341 339
355 354 353 353 353 353 353 353 353 352 351 350 348 347 346 344 342 342 342 343 344 344 343 342 338 333 328 326 326 327 330 333 336 339 342 345 348 350 351 350 348 346 343 339 339 348 358 2 3 3 3 1 358 356 355 353 352 350 349 348 346 345 345 344 343 344 345 345 345
354 353 352 352 352 352 353 353 353 352 352 351 350 349 348 346 344 342 341 342 343 344 343 341 338 333 328 325 324 324 326 328 331 334 337 341 345 349 351 352 351 351 350 347 340 341 351 359 2 2 1 359 358 356 355 354 352 350 348 346 345 343 342 341 341 341 342 343 344
354 353 352 351 351 352 352 353 352 352 352 352 351 350 349 348 346 343 341 342 343 343 343 342 339 334 330 325 322 321 322 324 327 330 332 335 340 345 349 351 352 353 354 352 345 338 341 352 360 2 360 358 357 356 355 355 354 352 350 348 346 343 342 340 339 338 338 339 341
354 353 352 351 351 352 352 352 352 352 351 351 351 351 350 350 348 345 343 342 342 342 342 341 339 336 331 327 324 321 321 321 323 326 329 332 335 339 343 347 350 353 354 353 349 342 336 340 354 1 0 358 356 356 356 355 354 352 351 350 347 345 344 342 341 339 338 337 337
354 354 353 352 352 352 352 352 352 351 351 350 350 350 351 351 349 347 344 342 341 341 341 341 339 337 333 329 326 323 320 320 321 323 326 329 332 335 338 341 345 349 351 351 351 347 340 331 342 357 2 1 359 359 357 355 353 352 351 350 349 347 346 345 344 342 340 338 337
355 354 353 353 353 353 352 352 352 351 351 350 350 350 351 350 350 348 346 343 342 341 340 340 339 337 334 331 328 325 322 320 319 320 323 326 329 331 333 336 340 344 347 347 350 349 343 328 328 346 1 4 4 3 0 357 354 352 351 350 349 349 349 348 347 345 343 341 339
355 355 354 354 353 353 353 353 352 352 351 351 351 351 350 350 350 349 347 345 343 341 340 339 338 337 335 333 330 328 325 323 321 320 321 323 325 328 330 332 335 339 341 343 346 348 343 332 323 334 355 3 6 6 4 0 357 353 351 350 350 350 350 349 348 348 346 344 342
356 356 355 354 354 354 354 354 353 353 353 352 352 351 351 350 350 349 348 347 345 342 340 339 338 337 336 335 333 331 329 327 325 323 323 322 323 324 326 328 331 333 336 338 341 343 342 336 328 329 345 358 3 5 5 3 359 355 352 351 352 352 351 351 350 349 348 346 344
356 356 355 355 355 355 355 355 355 354 354 353 353 352 352 351 351 350 349 348 346 344 342 340 339 338 338 337 335 334 333 331 330 328 327 326 325 325 325 326 327 329 331 333 337 338 338 338 333 330 338 351 358 3 5 5 1 357 354 353 353 353 353 352 351 350 349 347 345
357 357 356 356 356 356 356 356 356 356 355 355 354 354 353 352 352 351 350 349 347 345 343 342 340 340 339 338 337 336 336 335 334 333 332 331 330 329 328 327 326 326 328 330 333 334 336 337 334 330 331 342 353 1 6 6 3 359 356 355 355 354 354 353 352 350 349 347 345
357 357 357 357 357 357 357 357 357 357 356 356 356 355 355 354 353 352 351 350 348 346 345 343 342 341 339 338 337 337 337 336 336 336 336 335 334 333 332 331 328 327 327 328 330 332 333 334 334 330 326 332 346 358 6 7 5 1 357 356 355 354 353 352 351 350 348 347 345
357 357 357 358 358 358 358 358 358 357 357 357 357 357 356 356 355 354 353 352 350 349 347 345 343 342 340 338 338 337 337 337 337 337 336 336 336 336 335 334 332 330 329 329 330 331 331 332 333 329 323 323 337 355 5 8 7 2 357 355 354 354 353 351 350 349 347 346 344
357 357 358 358 359 359 359 359 358 358 358 358 358 358 358 358 357 357 355 354 352 351 349 346 345 343 341 340 339 338 338 338 338 337 337 337 337 337 337 336 334 333 332 331 332 332 331 331 332 328 322 319 329 348 2 8 8 4 358 355 354 354 352 351 350 349 347 346 344
356 357 358 359 360 360 360 359 359 359 358 358 358 359 360 360 359 359 357 356 354 353 351 349 347 346 345 344 343 342 342 341 340 340 339 338 338 338 337 337 336 335 335 335 335 334 332 331 332 329 323 318 324 342 358 5 8 6 360 355 354 354 352 351 350 349 348 346 345
356 356 357 358 359 0 0 360 359 359 358 358 358 359 360 0 0 359 358 357 356 355 354 352 350 349 349 349 349 347 346 345 344 343 342 340 339 338 338 338 338 338 338 338 338 337 335 333 333 331 326 319 321 337 354 2 6 5 360 353 352 352 351 350 350 349 349 348 347
355 355 356 357 358 360 1 1 360 359 359 358 358 358 359 359 360 360 359 359 358 357 356 354 353 352 353 353 353 352 350 348 346 345 343 342 340 339 339 339 339 340 341 341 341 339 337 334 334 333 328 320 321 336 352 359 4 3 357 348 348 349 350 350 351 351 351 351 351
353 354 354 356 357 360 1 1 0 359 359 358 358 358 358 358 359 360 360 360 359 359 358 356 355 355 355 356 355 354 352 349 348 346 345 343 341 340 339 339 340 342 343 343 342 341 339 336 334 332 327 321 324 339 353 359 3 360 350 344 344 347 349 350 352 354 355 355 355
351 352 352 354 357 359 1 1 1 360 359 358 357 357 357 358 358 359 359 359 359 359 359 357 356 356 357 358 357 356 353 351 349 347 346 344 342 340 339 340 341 343 344 343 343 342 341 338 335 331 327 324 331 345 356 0 2 355 344 341 344 347 349 350 353 355 357 358 358
349 350 351 352 355 357 359 1 0 360 358 357 356 356 356 357 358 358 358 358 359 359 358 357 356 356 358 359 360 359 357 354 352 350 348 346 343 340 339 339 341 344 345 345 345 345 344 341 336 331 328 328 340 351 357 360 357 348 342 343 345 347 348 350 353 355 357 358 359
346 348 349 351 353 356 358 359 359 359 357 357 356 355 355 356 356 357 357 358 357 357 357 356 356 356 358 359 2 2 2 359 357 355 353 350 346 342 339 339 341 343 344 345 346 346 346 343 338 333 331 334 345 353 355 356 351 345 343 344 345 346 348 350 352 354 356 358 357
344 346 348 350 352 354 356 358 358 357 356 356 355 354 354 354 355 356 357 357 356 355 355 355 355 356 357 359 2 5 6 5 4 2 359 355 350 344 340 338 339 341 343 343 345 346 346 344 340 335 333 335 345 350 351 350 347 344 344 344 343 345 347 349 351 353 354 356 355
342 344 346 348 351 353 355 356 356 356 355 354 354 353 353 354 355 356 356 356 355 354 354 354 354 355 356 359 2 7 10 11 10 8 5 1 355 349 343 339 339 340 341 342 343 344 345 344 342 338 334 335 342 345 345 345 345 345 345 345 343 343 345 349 351 353 354 354 353
342 343 345 347 349 351 353 354 355 355 354 353 352 352 353 353 353 354 354 354 354 354 353 353 353 354 355 357 1 7 13 15 15 13 10 7 1 355 350 345 343 343 344 343 343 343 344 345 344 341 337 336 338 339 339 341 344 346 347 346 343 342 344 349 352 354 354 353 352
341 342 344 345 347 349 350 352 353 354 354 353 352 351 351 351 351 352 352 353 353 353 352 352 352 352 353 355 360 7 13 17 19 18 15 12 9 4 359 355 351 350 349 348 346 345 345 346 346 345 340 336 334 334 335 338 343 346 348 348 345 344 345 350 353 355 355 354 352
Height
1550 1549 1547 1545 1544 1542 1540 1539 1537 1535 1534 1533 1531 1530 1529 1527 1526 1525 1524 1522 1520 1519 1517 1515 1514 1512 1510 1508 1506 1505 1503 1501 1499 1496 1494 1492 1489 1487 1484 1482 1479 1476 1473 1470 1467 1465 1463 1461 1458 1456 1454 1452 1450 1449 1448 1447 1446 1445 1444 1443 1442 1441 1439 1439 1437 1436 1435 1434 1433
1549 1548 1546 1544 1543 1541 1539 1538 1536 1535 1534 1532 1531 1529 1528 1527 1526 1524 1523 1522 1520 1518 1516 1515 1513 1511 1509 1508 1506 1504 1502 1500 1498 1495 1493 1491 1489 1487 1484 1481 1479 1476 1473 1470 1467 1465 1463 1460 1458 1456 1454 1452 1450 1449 1448 1447 1445 1444 1443 1442 1441 1440 1439 1437 1436 1435 1434 1433 1432
1549 1547 1545 1544 1542 1540 1539 1537 1536 1534 1533 1532 1531 1529 1528 1527 1525 1524 1522 1521 1519 1518 1516 1514 1512 1510 1509 1507 1505 1504 1502 1499 1497 1495 1493 1491 1489 1486 1484 1481 1478 1475 1473 1470 1468 1465 1463 1461 1458 1456 1454 1452 1450 1449 1448 1446 1445 1444 1443 1441 1440 1439 1438 1437 1435 1434 1433 1432 1431
1549 1547 1545 1543 1542 1540 1539 1537 1535 1534 1533 1531 1530 1529 1528 1526 1525 1523 1522 1520 1519 1517 1515 1514 1512 1510 1508 1506 1505 1503 1501 1499 1497 1495 1493 1491 1489 1486 1484 1481 1478 1475 1473 1470 1468 1466 1464 1461 1459 1456 1454 1452 1450 1449 1448 1446 1445 1444 1442 1441 1440 1439 1437 1436 1435 1434 1433 1431 1430
1547 1546 1544 1543 1541 1539 1538 1536 1535 1534 1532 1531 1529 1528 1527 1526 1524 1523 1521 1520 1518 1516 1515 1513 1511 1509 1507 1506 1504 1502 1500 1499 1497 1494 1492 1490 1488 1486 1484 1481 1478 1475 1473 1470 1468 1466 1464 1462 1459 1457 1455 1453 1451 1449 1448 1447 1445 1444 1442 1441 1440 1439 1437 1436 1435 1434 1432 1431 1430
1547 1545 1543 1542 1540 1539 1537 1536 1534 1533 1532 1530 1529 1528 1527 1525 1524 1522 1521 1519 1517 1516 1514 1512 1510 1509 1507 1505 1503 1502 1500 1498 1496 1494 1492 1490 1488 1486 1483 1481 1478 1475 1473 1471 1468 1466 1464 1462 1460 1458 1456 1454 1452 1450 1449 1447 1446 1444 1443 1442 1440 1439 1438 1436 1435 1434 1432 1431 1430
1546 1544 1543 1541 1539 1538 1537 1535 1534 1532 1531 1530 1529 1527 1526 1525 1523 1522 1520 1519 1517 1515 1513 1511 1509 1508 1506 1504 1502 1501 1499 1497 1495 1494 1492 1490 1488 1485 1483 1481 1478 1475 1473 1471 1469 1467 1465 1463 1461 1459 1457 1455 1453 1452 1450 1448 1447 1445 1444 1442 1441 1439 1438 1437 1435 1434 1433 1432 1430
1545 1544 1542 1541 1539 1538 1536 1534 1533 1532 1530 1529 1528 1527 1525 1524 1523 1521 1519 1518 1516 1514 1512 1510 1509 1507 1505 1503 1502 1500 1498 1497 1495 1493 1491 1489 1487 1485 1483 1480 1478 1475 1473 1471 1469 1467 1465 1464 1462 1460 1458 1456 1454 1453 1451 1449 1448 1446 1444 1443 1441 1440 1439 1437 1436 1435 1434 1432 1431
1544 1543 1541 1540 1538 1537 1535 1534 1533 1531 1530 1529 1527 1526 1525 1524 1522 1520 1519 1517 1515 1513 1511 1509 1507 1506 1504 1503 1501 1499 1498 1496 1494 1493 1491 1489 1487 1485 1483 1480 1478 1475 1473 1471 1469 1467 1465 1464 1462 1460 1459 1457 1455 1454 1452 1450 1448 1447 1445 1444 1442 1441 1439 1438 1437 1435 1434 1433 1432
1544 1542 1541 1539 1538 1536 1535 1533 1532 1531 1529 1528 1527 1525 1524 1523 1521 1519 1518 1516 1514 1512 1510 1509 1507 1505 1503 1502 1500 1499 1497 1496 1494 1492 1491 1489 1487 1485 1483 1481 1478 1475 1473 1471 1469 1467 1465 1464 1462 1461 1459 1458 1456 1454 1453 1451 1449 1447 1446 1444 1443 1441 1440 1438 1437 1436 1434 1433 1432
1543 1542 1540 1539 1537 1536 1534 1533 1531 1530 1529 1527 1526 1524 1523 1522 1520 1519 1517 1515 1513 1511 1509 1508 1506 1504 1502 1501 1500 1498 1497 1495 1494 1492 1490 1489 1487 1485 1483 1481 1479 1476 1474 1471 1469 1468 1465 1464 1462 1461 1459 1458 1456 1454 1453 1451 1449 1448 1446 1444 1443 1441 1440 1439 1437 1436 1434 1433 1432
1543 1541 1539 1538 1536 1535 1534 1532 1530 1529 1528 1526 1525 1524 1522 1521 1519 1518 1516 1514 1513 1511 1509 1507 1505 1503 1502 1500 1499 1498 1496 1495 1493 1491 1490 1489 1487 1485 1483 1481 1479 1476 1474 1472 1470 1468 1466 1464 1462 1460 1459 1457 1456 1454 1452 1451 1449 1448 1446 1444 1443 1442 1440 1439 1437 1436 1434 1433 1432
1542 1540 1539 1537 1536 1534 1533 1531 1530 1528 1527 1525 1524 1523 1521 1520 1518 1517 1515 1514 1512 1510 1508 1506 1504 1503 1501 1500 1499 1497 1496 1494 1493 1491 1489 1488 1487 1485 1483 1481 1479 1477 1474 1472 1470 1468 1466 1464 1462 1460 1459 1457 1456 1454 1452 1450 1449 1447 1446 1444 1443 1441 1440 1439 1437 1436 1434 1433 1432
1541 1540 1539 1537 1535 1534 1532 1530 1529 1528 1526 1524 1523 1522 1520 1519 1517 1516 1514 1513 1511 1509 1507 1505 1504 1502 1501 1499 1498 1497 1495 1494 1492 1491 1489 1488 1486 1484 1483 1481 1479 1477 1475 1473 1470 1468 1466 1464 1462 1461 1459 1457 1456 1454 1452 1450 1449 1447 1445 1444 1442 1441 1439 1438 1437 1435 1434 1433 1431
1540 1539 1538 1536 1535 1533 1532 1530 1529 1527 1525 1524 1522 1521 1519 1518 1516 1515 1513 1512 1510 1508 1506 1504 1503 1501 1500 1499 1498 1496 1495 1493 1492 1490 1489 1487 1485 1484 1482 1481 1479 1477 1475 1473 1471 1469 1467 1465 1463 1461 1459 1458 1456 1454 1453 1451 1449 1447 1445 1444 1442 1441 1439 1438 1436 1435 1433 1432 1430
1540 1539 1537 1536 1534 1533 1531 1529 1528 1526 1525 1523 1522 1520 1519 1517 1515 1514 1512 1511 1509 1507 1506 1504 1502 1501 1499 1498 1497 1496 1494 1493 1491 1489 1488 1486 1484 1483 1481 1480 1478 1476 1474 1473 1471 1469 1467 1465 1463 1461 1459 1458 1456 1454 1453 1451 1449 1447 1446 1444 1442 1440 1439 1437 1435 1434 1433 1431 1430
1539 1538 1537 1535 1534 1532 1531 1529 1527 1526 1524 1523 1521 1519 1518 1516 1514 1513 1512 1510 1509 1507 1505 1504 1502 1500 1499 1498 1496 1495 1494 1492 1491 1489 1487 1486 1484 1482 1480 1479 1477 1475 1474 1472 1471 1469 1467 1465 1463 1461 1460 1458 1456 1455 1453 1451 1449 1447 1446 1444 1442 1440 1439 1437 1435 1433 1432 1430 1429
1539 1537 1536 1535 1533 1532 1530 1528 1527 1525 1524 1522 1520 1519 1517 1515 1514 1512 1511 1509 1508 1506 1504 1503 1501 1499 1498 1497 1495 1494 1493 1491 1490 1488 1487 1485 1484 1482 1480 1478 1477 1475 1473 1471 1470 1469 1467 1465 1463 1461 1459 1458 1457 1455 1453 1451 1449 1447 1445 1444 1442 1440 1439 1437 1435 1433 1431 1429 1428
1538 1537 1535 1534 1533 1531 1529 1528 1526 1524 1523 1521 1519 1518 1516 1514 1513 1512 1510 1509 1507 1505 1504 1502 1500 1499 1498 1496 1495 1494 1492 1491 1489 1488 1486 1484 1483 1481 1479 1478 1476 1474 1473 1471 1469 1468 1467 1465 1463 1461 1459 1458 1456 1455 1453 1451 1449 1447 1445 1444 1442 1440 1438 1436 1434 1433 1431 1429 1427
1537 1536 1535 1533 1532 1530 1529 1527 1525 1524 1522 1520 1519 1517 1515 1514 1512 1511 1509 1508 1506 1505 1503 1501 1500 1498 1497 1495 1494 1493 1491 1490 1488 1487 1485 1484 1482 1480 1479 1477 1476 1474 1472 1471 1469 1468 1466 1464 1462 1461 1459 1458 1456 1454 1453 1451 1449 1447 1445 1443 1441 1439 1438 1436 1434 1432 1430 1429 1427
1536 1535 1534 1533 1531 1529 1528 1526 1524 1523 1521 1520 1518 1517 1515 1513 1512 1510 1509 1507 1506 1504 1503 1501 1499 1498 1496 1494 1493 1492 1490 1489 1488 1486 1484 1483 1481 1479 1478 1477 1475 1474 1472 1471 1469 1467 1466 1464 1462 1460 1459 1458 1456 1454 1452 1450 1448 1446 1444 1443 1441 1439 1438 1436 1434 1432 1430 1428 1426
1536 1534 1533 1532 1530 1529 1527 1526 1524 1523 1521 1519 1518 1516 1514 1513 1511 1509 1508 1506 1505 1503 1502 1500 1499 1497 1495 1494 1492 1491 1489 1488 1487 1485 1484 1482 1480 1479 1477 1475 1474 1473 1471 1470 1468 1467 1465 1463 1461 1460 1458 1457 1455 1453 1451 1449 1448 1446 1444 1442 1440 1439 1437 1435 1433 1432 1430 1428 1426
1535 1534 1533 1531 1530 1528 1527 1525 1524 1522 1520 1519 1517 1515 1514 1512 1510 1509 1507 1506 1504 1503 1501 1499 1498 1496 1494 1493 1492 1490 1489 1487 1486 1485 1483 1481 1480 1478 1476 1474 1473 1472 1470 1469 1467 1466 1464 1463 1461 1459 1457 1456 1454 1452 1451 1449 1447 1445 1444 1442 1440 1438 1436 1434 1433 1431 1429 1427 1425
1534 1533 1532 1530 1529 1528 1526 1524 1523 1521 1519 1518 1516 1514 1513 1511 1510 1508 1507 1505 1504 1502 1500 1499 1497 1495 1494 1492 1491 1489 1488 1486 1485 1484 1482 1481 1479 1478 1476 1474 1472 1471 1469 1468 1467 1465 1464 1463 1460 1458 1456 1454 1453 1451 1449 1448 1446 1444 1443 1441 1439 1437 1435 1433 1432 1430 1428 1426 1424
1534 1532 1531 1530 1528 1527 1525 1524 1522 1520 1519 1517 1516 1514 1512 1511 1509 1507 1506 1504 1503 1501 1499 1498 1496 1494 1493 1492 1490 1489 1487 1486 1484 1483 1481 1480 1479 1477 1475 1474 1472 1470 1469 1467 1466 1465 1464 1462 1460 1457 1455 1453 1452 1450 1448 1447 1445 1444 1442 1440 1438 1436 1434 1432 1430 1429 1427 1425 1423
1533 1532 1530 1529 1528 1526 1524 1523 1522 1520 1519 1517 1515 1514 1512 1510 1508 1506 1505 1503 1502 1500 1499 1497 1495 1494 1492 1491 1489 1488 1486 1485 1484 1482 1480 1479 1477 1476 1474 1473 1471 1470 1468 1467 1465 1464 1463 1461 1460 1457 1454 1452 1450 1449 1447 1446 1444 1443 1441 1439 1438 1435 1434 1432 1429 1428 1426 1424 1422
1532 1531 1530 1529 1527 1525 1524 1523 1521 1519 1518 1516 1514 1513 1511 1509 1508 1506 1504 1503 1501 1499 1498 1496 1494 1493 1491 1490 1488 1487 1485 1484 1482 1481 1479 1478 1476 1475 1473 1472 1470 1469 1467 1466 1464 1463 1462 1461 1460 1457 1454 1451 1450 1448 1446 1445 1443 1442 1440 1439 1437 1435 1433 1431 1429 1427 1425 1423 1421
1531 1530 1529 1528 1526 1525 1524 1522 1520 1519 1517 1515 1514 1512 1510 1509 1507 1505 1504 1502 1500 1499 1497 1495 1494 1492 1490 1489 1487 1486 1484 1483 1481 1480 1478 1477 1475 1474 1472 1471 1469 1468 1466 1465 1464 1463 1461 1460 1459 1457 1454 1451 1449 1448 1446 1444 1443 1441 1439 1438 1436 1434 1432 1430 1428 1426 1424 1422 1419
1531 1529 1528 1527 1526 1524 1523 1521 1520 1518 1517 1515 1513 1512 1510 1508 1506 1505 1503 1501 1499 1498 1496 1494 1493 1491 1489 1488 1486 1484 1483 1482 1480 1479 1477 1475 1474 1473 1471 1470 1468 1467 1465 1464 1463 1462 1460 1459 1458 1457 1454 1451 1449 1447 1445 1444 1442 1440 1439 1437 1436 1434 1432 1429 1427 1425 1423 1421 1419
1530 1529 1528 1526 1525 1524 1522 1521 1519 1518 1516 1514 1513 1511 1509 1508 1506 1504 1502 1500 1499 1497 1496 1494 1492 1490 1489 1487 1485 1484 1482 1480 1479 1478 1476 1474 1473 1471 1470 1469 1467 1466 1464 1463 1462 1460 1459 1458 1457 1456 1454 1450 1448 1446 1445 1443 1441 1440 1439 1437 1435 1433 1431 1429 1427 1424 1422 1420 1418
1529 1528 1527 1526 1524 1523 1522 1520 1519 1517 1515 1514 1512 1511 1509 1507 1505 1504 1502 1500 1499 1497 1495 1494 1492 1490 1489 1487 1485 1483 1481 1480 1478 1476 1475 1473 1472 1470 1469 1468 1466 1465 1464 1462 1461 1459 1458 1457 1456 1454 1453 1450 1448 1446 1444 1443 1441 1439 1438 1436 1434 1433 1430 1429 1426 1424 1422 1419 1417
1528 1527 1526 1525 1524 1522 1521 1519 1518 1516 1515 1513 1512 1510 1508 1507 1505 1504 1502 1500 1498 1496 1494 1493 1491 1489 1488 1486 1484 1482 1480 1479 1477 1475 1474 1472 1471 1469 1468 1466 1465 1464 1462 1461 1460 1459 1457 1456 1455 1454 1452 1449 1447 1445 1444 1442 1440 1438 1437 1436 1434 1432 1430 1428 1426 1424 1421 1419 1416
1528 1527 1525 1524 1523 1522 1520 1519 1517 1516 1514 1513 1511 1509 1508 1506 1505 1503 1501 1499 1498 1496 1494 1492 1490 1489 1487 1485 1483 1481 1480 1478 1476 1475 1473 1471 1470 1468 1467 1465 1464 1463 1461 1460 1459 1457 1456 1455 1454 1452 1451 1449 1446 1444 1443 1441 1439 1437 1436 1435 1434 1432 1430 1428 1426 1424 1421 1418 1416
1527 1526 1525 1524 1522 1521 1519 1518 1517 1515 1514 1512 1510 1509 1508 1506 1504 1502 1500 1499 1497 1495 1494 1492 1490 1489 1487 1485 1483 1481 1479 1477 1476 1474 1472 1471 1469 1467 1466 1464 1463 1462 1460 1459 1458 1456 1455 1454 1452 1451 1450 1448 1446 1444 1442 1440 1438 1437 1437 1435 1434 1432 1430 1428 1425 1423 1420 1418 1415
1526 1525 1524 1523 1521 1520 1519 1517 1516 1514 1513 1511 1510 1509 1507 1505 1504 1502 1500 1499 1497 1495 1494 1492 1490 1488 1486 1484 1483 1481 1479 1477 1475 1473 1472 1470 1468 1467 1465 1464 1462 1461 1460 1459 1457 1455 1454 1452 1451 1450 1449 1447 1445 1443 1441 1439 1438 1438 1437 1435 1434 1432 1429 1427 1425 1422 1420 1418 1415
1525 1524 1523 1522 1521 1519 1518 1516 1515 1514 1512 1511 1509 1508 1506 1504 1503 1502 1500 1498 1496 1495 1493 1491 1490 1488 1486 1484 1483 1481 1479 1477 1475 1473 1471 1469 1468 1466 1464 1463 1462 1460 1459 1458 1456 1455 1453 1451 1450 1449 1448 1445 1444 1442 1440 1439 1438 1438 1437 1435 1433 1431 1429 1426 1424 1422 1419 1417 1415
1524 1523 1522 1521 1520 1519 1517 1516 1514 1513 1512 1510 1509 1507 1505 1504 1503 1501 1499 1497 1495 1494 1493 1491 1489 1488 1486 1484 1483 1481 1479 1477 1475 1473 1471 1469 1468 1466 1464 1463 1461 1460 1459 1457 1456 1454 1453 1451 1449 1448 1447 1444 1443 1441 1440 1439 1438 1437 1436 1434 1432 1430 1428 1426 1424 1422 1419 1417 1415
1523 1522 1521 1520 1519 1518 1516 1515 1514 1512 1511 1509 1508 1507 1505 1504 1502 1500 1499 1497 1495 1494 1492 1491 1489 1488 1486 1484 1482 1481 1479 1477 1475 1473 1471 1469 1468 1466 1464 1462 1461 1460 1459 1457 1455 1454 1452 1450 1448 1447 1445 1444 1442 1440 1439 1439 1438 1437 1435 1434 1432 1430 1428 1426 1424 1421 1419 1417 1416
1522 1521 1520 1519 1518 1517 1515 1514 1513 1511 1510 1509 1507 1506 1504 1503 1501 1499 1498 1497 1495 1493 1492 1490 1489 1487 1486 1484 1482 1480 1479 1477 1475 1473 1471 1469 1468 1466 1464 1462 1461 1459 1458 1457 1455 1454 1452 1450 1448 1446 1444 1443 1441 1440 1439 1438 1437 1436 1434 1433 1431 1429 1427 1425 1423 1421 1419 1417 1416
1521 1520 1519 1518 1517 1516 1514 1513 1512 1511 1509 1508 1507 1505 1504 1502 1501 1499 1498 1496 1494 1493 1491 1490 1489 1487 1485 1484 1482 1480 1479 1477 1475 1473 1471 1469 1468 1466 1464 1463 1461 1459 1458 1456 1454 1453 1451 1449 1447 1445 1444 1443 1441 1439 1439 1437 1436 1435 1434 1432 1430 1429 1427 1425 1423 1421 1419 1417 1415
1520 1519 1518 1517 1516 1515 1514 1513 1511 1510 1509 1508 1506 1504 1503 1502 1500 1499 1497 1496 1494 1493 1491 1489 1488 1487 1485 1484 1482 1480 1478 1476 1475 1473 1471 1470 1468 1466 1464 1462 1460 1459 1457 1455 1454 1452 1450 1449 1447 1445 1444 1444 1442 1440 1439 1437 1436 1434 1433 1432 1430 1429 1427 1425 1423 1421 1419 1417 1415